RH
89 90 91 91 90 89 89 89 88 86 83 79 75 72 69 65 63 60 57 54 50 46 42 37 33 29 26 22 16 11 8 9 9 10 11 11 12 14 14 14 13 12 11 11 12 10 10 9 5 5 9 15 21 22 21 20 20 18 25 43 61 72 81 90 99 101 99 100 99 98 100 100 97 92 88 89 88 85 81 77 74 68 59 51 46
87 88 89 89 89 88 87 86 83 80 77 74 71 67 64 61 58 56 54 48 42 37 32 26 21 18 14 11 12 14 16 17 17 16 19 22 26 29 30 30 30 27 22 17 16 13 8 6 7 6 7 9 12 17 21 22 21 20 16 20 36 55 70 80 90 99 101 100 96 94 98 101 101 98 92 91 91 89 87 83 80 78 71 63 57
86 86 86 86 87 86 84 81 77 73 70 67 65 62 60 57 53 51 45 37 31 25 20 16 13 10 10 16 26 31 29 29 32 33 39 48 54 57 58 58 59 58 50 44 45 42 31 20 17 15 13 11 10 11 16 20 21 21 17 13 16 29 48 66 79 93 101 100 97 97 99 99 100 101 94 89 91 92 90 87 82 79 76 75 68
83 83 84 84 84 82 79 75 71 69 66 64 62 59 55 51 46 41 32 25 20 16 12 9 9 12 21 36 48 51 48 45 47 52 61 72 75 73 74 76 78 79 76 70 65 60 53 45 39 35 34 29 22 16 12 15 18 18 17 13 11 14 23 42 61 81 98 101 100 99 99 98 98 101 96 88 88 93 93 90 85 79 77 78 73
82 82 83 83 79 76 72 69 67 66 64 60 57 52 47 41 35 27 19 15 12 12 14 13 20 31 39 52 59 58 55 52 50 55 63 71 75 73 75 83 89 91 90 86 79 70 63 61 56 56 63 57 46 36 23 16 14 14 14 10 10 12 13 23 40 65 89 99 101 99 99 100 93 92 97 95 91 92 92 91 90 84 79 77 72
83 82 80 77 73 71 69 67 65 62 58 53 47 40 33 27 21 15 12 13 15 19 25 31 43 52 55 65 72 67 60 55 50 51 53 56 62 64 65 75 89 95 95 95 97 91 80 75 68 66 74 72 63 55 44 34 25 18 16 12 10 12 16 21 31 57 85 96 100 100 99 99 91 87 96 100 97 95 93 92 93 91 86 81 75
81 78 74 72 71 69 67 63 57 51 46 41 33 25 19 15 14 16 18 23 27 27 32 46 59 63 64 69 80 89 86 73 62 59 58 54 53 56 57 63 77 87 91 95 101 103 97 90 82 78 79 76 67 61 55 50 43 35 30 25 20 19 24 28 33 60 91 99 99 101 100 100 95 92 96 99 100 100 97 94 91 92 91 87 79
76 74 72 71 68 64 58 52 44 38 33 27 20 15 13 15 21 28 33 39 41 35 34 46 60 66 67 65 73 93 96 78 66 66 68 64 57 57 59 61 69 78 83 86 92 98 101 98 91 88 87 82 72 63 57 56 56 51 44 39 36 35 38 38 40 64 93 100 100 100 99 101 99 97 98 99 99 100 99 98 93 91 91 88 83
73 72 70 66 59 52 45 39 34 30 26 20 16 15 16 19 27 37 44 50 52 47 38 38 48 58 61 58 62 75 79 72 67 65 67 69 65 61 62 61 63 70 75 79 82 84 88 87 83 82 84 83 79 71 63 62 64 62 58 54 49 48 51 51 52 68 88 95 99 102 99 100 101 99 100 100 100 99 98 100 98 95 93 88 83
74 72 65 56 47 42 39 38 36 32 25 20 18 19 19 21 27 35 45 53 57 56 50 43 45 53 56 54 54 57 62 66 68 65 66 71 70 65 64 64 61 63 68 73 76 74 73 72 71 73 76 76 75 74 70 67 69 70 73 74 66 58 59 63 63 71 84 90 95 100 101 100 101 100 100 100 100 100 99 98 99 100 97 91 87
75 68 58 48 43 42 42 42 41 34 27 23 21 19 20 21 24 28 37 49 56 60 61 58 56 58 59 59 55 52 54 58 62 67 69 73 75 71 67 64 61 60 61 65 67 67 64 62 62 64 67 69 67 67 67 65 68 73 77 80 78 68 61 63 70 77 86 90 92 98 101 100 100 100 100 100 100 100 99 98 98 100 100 97 96
71 63 52 44 43 43 42 40 38 33 26 22 19 18 18 19 21 24 28 39 51 60 64 66 65 65 65 66 65 62 61 61 62 66 72 75 76 74 69 63 59 56 56 57 59 59 55 53 58 60 59 61 62 62 63 61 63 73 79 79 78 78 73 64 65 75 86 90 91 96 100 100 100 100 100 100 100 100 99 98 98 99 100 100 100
65 56 46 42 43 43 42 42 40 35 27 22 21 21 21 19 19 22 25 32 43 53 58 62 65 68 69 70 72 72 71 72 67 66 74 80 78 73 66 58 53 52 52 52 52 53 50 51 61 65 59 57 58 59 60 58 60 73 85 85 82 90 96 80 60 60 73 83 88 92 96 100 101 100 100 101 100 100 100 100 99 99 100 100 100
62 53 45 43 45 47 49 49 46 41 35 34 36 35 30 24 21 21 25 31 37 43 47 50 53 59 63 66 70 72 72 75 74 71 76 81 80 75 66 58 53 49 48 49 51 53 54 56 64 68 66 61 59 62 62 61 65 75 86 91 87 92 99 89 66 52 54 64 75 83 89 95 101 101 100 100 100 100 101 100 99 99 100 100 100
62 54 49 48 51 56 59 56 52 48 47 51 53 50 42 33 26 22 22 27 30 33 36 38 39 42 47 53 61 68 70 73 76 77 79 82 83 78 71 64 56 48 45 48 53 59 61 60 62 67 70 67 65 67 69 71 75 79 85 89 87 92 96 88 72 56 48 48 55 65 74 83 95 102 100 100 100 100 100 100 99 99 99 99 99
63 58 55 58 65 71 71 65 59 57 62 67 67 63 56 46 36 28 26 27 25 24 24 26 28 30 34 41 52 63 69 72 79 83 84 85 84 79 72 66 58 50 46 46 51 61 66 63 61 63 67 70 69 69 70 76 81 80 83 88 88 91 95 88 77 67 57 51 47 49 57 66 82 97 101 100 100 100 100 100 100 100 100 99 97
68 66 68 74 80 81 77 71 67 70 76 80 78 76 69 59 47 37 32 30 25 21 20 21 22 24 28 36 50 65 71 72 78 83 83 82 81 77 70 64 57 51 48 45 48 60 70 69 63 61 63 67 70 70 67 71 79 78 77 87 91 91 91 85 81 78 70 65 58 51 49 51 64 86 99 101 100 101 100 100 101 100 99 99 97
78 78 85 88 86 84 81 74 70 75 83 86 85 83 75 66 56 47 40 35 30 25 22 20 20 21 25 32 46 63 71 72 74 80 83 82 78 75 70 65 58 52 51 50 49 58 71 75 70 65 62 63 68 72 69 66 71 74 73 80 88 91 90 85 84 84 78 74 70 63 56 49 52 72 93 100 100 100 100 100 101 100 100 100 100
90 93 94 89 85 90 86 75 72 80 87 86 85 82 75 68 62 56 49 41 35 29 26 23 18 18 24 31 41 55 66 70 72 76 80 80 77 75 73 68 62 57 55 55 54 58 68 76 76 72 66 63 66 72 74 69 66 68 71 76 85 93 95 90 87 87 83 78 74 71 67 58 51 60 80 95 100 100 100 100 100 100 101 100 100
97 96 90 84 90 97 87 77 83 94 94 86 81 79 74 68 64 59 53 45 38 32 28 25 17 17 29 41 50 57 61 66 70 72 74 76 76 74 72 69 66 63 60 59 60 60 64 72 77 77 71 65 65 71 77 75 68 65 69 74 82 93 98 94 92 92 88 84 78 72 68 64 59 57 65 83 97 100 100 100 101 100 101 100 99
92 84 76 76 87 91 86 89 98 102 96 87 82 79 74 69 63 58 53 46 39 31 26 21 15 23 42 55 61 64 63 65 69 72 72 73 72 71 70 69 67 65 63 62 62 62 63 68 73 75 72 66 66 71 79 80 72 67 70 76 81 87 94 96 97 96 93 89 83 75 68 65 64 63 60 68 85 97 100 99 100 100 100 101 100
78 68 66 73 85 93 96 101 102 100 94 88 85 80 73 69 63 58 53 46 37 29 22 15 17 38 60 66 67 69 68 68 70 71 72 71 71 69 69 68 65 64 64 63 64 64 64 65 69 71 68 65 65 71 80 84 76 70 73 81 83 82 89 97 99 97 94 91 87 81 73 67 67 69 64 62 70 85 96 99 100 100 100 101 100
68 67 73 81 87 91 96 99 99 96 93 91 87 78 72 68 64 62 58 44 34 28 18 15 31 59 75 74 72 72 72 72 71 72 72 73 74 73 71 70 67 65 64 65 65 64 63 63 66 67 64 63 65 70 81 86 79 73 76 84 86 83 87 97 100 97 94 92 89 85 79 75 75 74 70 65 63 70 84 94 98 99 100 100 100
77 81 87 92 89 88 94 100 99 96 96 95 86 76 72 70 69 71 62 43 33 25 15 26 57 79 82 80 78 75 73 73 74 73 71 71 73 73 74 73 70 66 65 67 67 65 63 61 62 63 61 61 64 69 81 87 79 73 76 83 86 84 86 94 98 97 95 93 93 91 86 85 86 83 78 74 68 65 72 83 93 98 98 98 100
89 88 88 93 94 95 100 102 100 99 98 93 86 80 78 78 79 76 62 43 31 20 22 50 82 90 86 85 82 78 75 75 76 77 73 71 71 71 73 72 67 64 64 66 66 62 61 60 59 59 58 59 61 67 80 88 82 72 71 76 81 84 88 94 95 94 93 94 95 96 93 91 91 89 88 86 80 74 75 85 95 99 96 94 97
97 92 88 92 97 100 102 102 100 98 95 94 94 91 88 87 81 69 55 40 22 20 45 80 96 93 89 88 84 82 82 79 78 79 75 73 73 72 72 71 67 65 64 63 61 59 58 57 56 56 57 58 60 66 77 88 85 74 70 74 81 86 89 88 85 85 90 94 95 97 98 95 92 90 92 95 92 87 91 96 99 100 97 95 96
101 98 93 94 101 102 99 101 101 97 94 95 97 94 92 83 65 50 42 28 20 41 79 99 98 93 90 88 86 86 87 84 81 81 78 75 74 72 72 72 68 64 61 59 58 56 55 55 54 55 56 56 59 65 75 86 88 78 72 77 85 88 86 80 76 79 87 91 92 96 100 99 96 95 97 100 97 94 97 100 100 100 100 98 98
94 96 96 94 99 102 99 101 102 95 86 82 83 83 78 62 41 29 23 21 42 79 101 100 95 93 90 89 90 88 88 88 85 83 81 77 74 74 74 72 69 65 62 61 59 55 53 53 54 55 55 57 60 64 73 85 90 83 75 77 86 90 86 81 80 83 86 88 86 90 97 99 99 100 100 101 100 95 95 100 100 100 100 100 100
74 88 93 89 88 91 91 89 86 79 69 63 62 60 51 36 22 16 22 46 82 104 103 97 94 92 91 93 95 94 93 94 92 89 87 84 81 80 78 75 74 72 69 66 64 62 61 61 62 61 60 61 62 64 73 86 94 91 82 80 86 93 90 84 85 89 90 89 87 87 93 99 100 101 101 101 100 93 89 95 100 100 100 101 100
49 67 73 71 68 65 68 66 60 54 46 39 37 33 26 17 14 28 56 87 105 104 98 98 96 95 98 100 100 101 100 100 100 99 98 96 94 91 88 86 85 84 82 80 79 79 78 75 72 69 66 66 66 68 77 89 97 98 92 85 85 91 94 90 89 91 91 91 92 90 91 96 99 101 101 100 101 95 86 86 93 97 99 101 101
38 42 42 41 38 35 36 35 30 28 26 23 20 16 14 21 41 71 95 105 104 100 98 99 98 100 101 101 101 102 101 101 101 101 101 102 102 99 98 98 97 97 98 97 96 95 91 85 80 76 74 74 73 76 81 88 95 99 99 94 88 87 91 92 90 89 89 91 93 91 92 96 99 101 100 99 100 97 87 81 83 87 91 95 97
25 23 22 20 21 20 20 20 19 19 17 13 13 18 34 60 85 100 104 102 102 101 99 99 101 101 100 100 101 100 100 101 100 100 100 101 101 101 101 101 100 101 102 103 103 101 98 93 89 86 85 83 81 81 83 85 90 96 99 99 96 90 88 89 87 85 86 89 91 92 94 98 100 100 101 100 99 95 89 82 79 77 80 84 87
15 21 20 17 17 16 16 16 14 13 15 22 38 60 82 98 103 103 103 103 102 100 99 100 101 100 100 101 100 100 100 100 100 100 100 100 100 101 100 100 100 100 101 103 103 102 101 101 99 97 95 92 90 88 88 88 90 94 97 98 98 94 90 89 85 82 81 84 90 96 99 101 102 101 101 101 100 99 96 91 83 74 72 73 75
37 38 30 25 26 26 26 27 30 38 51 68 85 98 103 103 103 104 104 103 101 100 101 101 100 100 101 100 100 100 100 100 100 100 100 100 100 100 100 100 100 100 100 101 101 101 101 102 102 102 100 99 97 95 96 97 97 97 99 99 97 94 91 89 86 82 79 82 91 100 102 102 102 103 102 101 101 102 102 100 89 76 69 67 67
79 75 68 65 67 72 73 74 80 86 92 99 103 102 102 103 105 105 103 102 102 101 100 100 100 101 100 100 101 100 100 100 100 100 100 100 100 100 101 101 100 100 101 101 101 101 101 101 101 101 101 100 99 98 99 102 102 102 102 101 99 95 90 88 86 84 81 83 90 98 101 101 102 102 102 101 102 102 101 99 91 78 69 64 61
101 100 98 98 99 101 102 100 101 101 101 104 103 101 103 104 104 104 104 103 102 99 100 101 100 100 100 100 100 100 100 100 100 100 100 100 100 100 100 100 100 101 101 101 101 100 101 102 101 100 100 100 100 99 99 99 100 101 101 101 101 100 94 89 87 85 84 84 87 92 97 99 101 102 102 102 103 100 93 90 86 80 72 63 57
103 101 103 105 103 102 102 102 102 103 104 103 102 102 104 104 104 104 104 102 101 100 101 100 100 100 100 100 100 100 100 100 100 100 100 100 100 100 100 100 100 100 100 101 101 100 100 100 98 98 99 99 99 99 99 100 100 100 100 100 99 99 98 93 89 87 85 84 85 88 92 94 95 97 100 103 102 95 84 78 79 79 74 64 55
101 101 103 103 103 103 102 102 103 103 102 101 102 104 104 104 103 102 102 102 100 100 100 100 100 101 100 100 101 100 100 101 101 101 100 101 101 100 100 101 101 100 100 99 96 94 92 91 90 91 94 95 96 97 96 98 98 98 100 101 100 99 99 96 92 89 86 82 82 84 88 89 89 89 94 100 100 94 82 75 75 78 74 66 59
103 105 103 103 106 103 101 102 101 99 100 102 104 104 103 103 101 100 102 102 100 100 100 99 99 100 100 100 100 100 101 101 101 101 101 101 100 100 101 101 101 101 99 98 96 93 91 89 87 87 88 89 90 92 91 93 95 95 95 98 99 100 100 99 98 97 92 85 82 82 84 85 87 90 96 99 97 92 82 73 74 79 76 70 68
104 103 103 105 105 100 98 99 97 97 100 102 103 104 103 102 99 98 100 101 101 101 99 96 98 101 102 101 101 100 100 99 100 101 101 100 100 101 102 101 100 100 101 101 100 99 98 97 92 88 83 77 75 76 77 79 84 87 89 90 92 96 97 98 98 98 94 89 85 85 86 88 91 94 97 93 86 84 80 72 72 76 74 71 73
104 104 103 101 99 97 97 98 98 99 102 102 103 104 103 100 96 96 99 101 101 100 97 96 98 101 101 102 101 101 100 99 100 101 100 101 101 101 103 103 100 98 99 99 99 99 100 99 95 92 89 82 76 72 70 70 71 74 77 78 81 85 87 87 87 87 86 84 83 83 84 87 88 89 90 87 80 78 78 73 68 67 67 68 73
102 102 99 96 95 95 96 99 99 100 102 104 104 104 103 99 94 93 96 99 99 98 96 97 100 102 103 102 101 101 100 100 102 102 100 101 103 102 102 101 99 99 98 99 99 99 99 99 99 98 97 94 87 80 77 75 73 70 68 65 64 67 69 69 69 69 69 70 72 74 75 78 79 79 80 82 79 79 81 77 66 59 60 64 68
98 97 94 92 93 95 97 99 99 100 103 104 104 103 100 96 92 91 92 94 96 96 97 100 102 102 101 100 100 99 98 99 102 103 100 100 101 102 101 100 100 101 101 100 101 101 100 101 101 102 103 102 97 92 87 83 78 74 72 68 64 62 61 61 60 59 60 60 61 63 66 69 72 71 71 73 75 78 82 77 65 57 58 61 64
95 93 91 90 93 97 99 99 99 102 102 101 102 102 98 94 92 90 89 90 91 94 97 99 100 99 98 98 99 99 98 100 101 101 101 102 102 101 100 101 101 101 100 100 101 101 101 100 99 98 97 95 92 90 90 87 85 82 81 80 79 77 75 73 71 69 70 71 69 67 67 67 67 67 68 71 75 79 81 79 75 74 74 76 79
93 91 90 91 94 99 101 102 103 103 102 100 100 99 95 92 89 87 88 90 90 92 94 96 98 98 97 98 101 102 101 98 94 90 91 98 102 99 97 99 101 101 100 101 101 101 101 100 97 95 94 93 91 89 86 85 85 85 85 85 86 88 89 88 87 86 88 89 88 86 84 80 76 74 72 74 78 82 84 86 92 97 96 94 93
91 89 89 91 94 99 102 105 106 105 103 101 98 95 93 90 86 85 88 91 92 94 94 95 95 95 96 100 103 101 98 96 91 85 82 88 95 94 91 97 102 101 100 101 102 101 101 101 101 100 99 99 98 95 90 87 86 86 87 90 92 95 96 96 96 97 98 98 98 98 96 94 93 91 88 87 88 90 90 91 96 100 99 97 96
89 87 87 90 93 96 99 102 105 105 104 101 98 96 93 88 85 86 88 89 92 94 94 96 96 93 93 98 98 96 96 96 95 95 91 88 89 86 84 90 99 101 101 102 102 102 101 100 101 100 99 99 99 98 97 95 92 91 92 95 97 98 99 99 99 98 100 102 102 99 98 98 98 99 99 98 98 99 98 96 94 95 96 98 100
91 88 87 89 92 95 98 101 102 103 103 101 100 97 93 89 87 87 87 88 89 90 91 93 93 90 90 93 93 96 100 99 98 99 94 85 83 83 81 85 95 101 99 94 93 96 99 99 99 99 98 99 101 101 98 95 92 90 91 93 97 98 99 99 96 93 94 98 100 99 98 96 95 96 99 101 101 101 100 98 96 95 97 100 101
92 90 88 89 92 95 98 99 100 102 103 102 101 98 93 91 89 88 89 89 88 87 88 89 89 90 92 95 97 100 104 104 102 100 93 85 81 82 83 88 98 103 98 89 88 94 98 99 100 99 99 99 100 100 99 97 93 89 88 91 96 99 99 99 98 96 95 94 96 98 97 93 90 90 94 100 102 102 101 101 98 97 98 100 101
90 91 90 90 92 94 97 98 98 100 102 101 100 99 95 93 92 91 92 91 89 89 90 90 92 93 93 96 101 102 102 103 102 100 99 96 91 89 91 95 98 99 96 92 93 97 99 100 101 100 100 100 99 98 100 99 97 95 95 96 99 99 98 96 98 101 100 97 96 96 96 94 93 93 95 98 102 102 102 102 101 99 99 101 101
88 90 90 91 93 95 98 97 94 97 100 99 98 98 96 95 94 93 92 92 92 92 92 91 91 91 91 96 102 102 100 102 102 100 101 102 100 98 100 99 96 95 94 93 97 101 101 101 101 100 100 101 100 99 99 100 100 101 101 101 101 100 96 94 95 98 100 100 99 98 97 98 99 100 100 100 101 101 101 101 101 100 101 102 101
Wind_Speed
24 25 26 27 29 31 33 36 38 41 44 47 50 53 56 58 61 64 66 68 70 71 73 74 75 76 79 80 77 73 68 65 64 62 61 60 60 60 60 60 61 62 63 65 68 71 70 67 68 71 74 76 76 74 70 67 64 62 61 63 66 68 66 61 55 52 52 52 51 55 57 56 54 53 51 50 48 47 47 45 43 42 41 41 41
27 27 28 29 31 34 37 40 43 46 49 53 56 58 61 63 66 68 71 73 74 74 74 75 74 74 73 71 65 60 56 53 52 51 49 49 48 47 47 48 49 50 51 53 55 58 59 59 59 63 67 71 74 75 74 72 69 67 65 64 64 67 68 67 61 56 54 55 53 53 56 59 58 57 55 54 52 51 50 49 47 45 43 42 41
29 30 31 32 35 38 41 44 48 51 55 58 61 64 66 68 70 72 75 76 75 73 72 72 70 67 62 57 51 48 46 44 43 43 42 41 40 39 40 41 42 43 44 45 47 49 51 50 50 53 57 61 66 70 72 72 72 70 68 66 65 65 67 67 66 61 57 56 56 55 56 58 59 60 61 59 57 55 54 53 51 49 46 44 43
31 33 34 37 39 42 45 49 52 55 59 62 65 67 70 72 75 77 77 76 74 71 68 65 61 57 50 45 41 40 39 38 38 38 38 38 38 37 37 38 40 41 42 42 44 46 47 45 44 45 48 51 56 61 65 68 69 70 69 68 67 66 66 65 65 64 61 57 58 59 58 58 61 61 61 63 62 60 58 56 55 53 51 48 47
33 35 37 39 42 46 49 53 56 59 62 65 68 72 76 78 79 77 73 70 67 62 57 54 50 46 42 39 38 38 38 37 37 38 38 39 39 38 37 37 38 40 41 42 42 43 44 44 42 41 42 44 47 52 57 61 64 67 67 68 68 68 68 67 64 63 62 60 60 61 60 61 63 60 59 64 66 63 61 59 58 56 55 53 51
34 36 39 42 46 50 54 57 60 64 66 70 74 77 78 77 73 68 63 59 54 50 47 45 42 40 38 37 37 38 40 39 39 39 39 40 40 39 38 37 37 38 39 40 40 40 41 43 43 42 41 41 43 45 48 53 58 62 65 67 68 68 68 68 66 62 61 62 62 62 62 62 63 60 61 64 65 65 64 62 60 59 57 56 54
34 37 41 45 49 53 57 61 66 69 71 74 74 73 69 64 59 55 52 50 46 43 42 39 38 38 37 36 34 36 39 40 40 39 39 40 41 41 40 38 38 39 38 37 37 38 39 40 41 41 40 39 40 42 44 47 50 55 60 64 67 68 68 69 68 63 61 61 61 62 63 62 62 63 63 63 63 65 67 65 64 62 60 58 57
36 39 43 47 53 58 63 67 70 72 73 72 68 63 58 53 50 48 46 45 43 41 40 38 38 38 37 36 34 35 39 42 41 40 39 41 42 43 41 40 39 39 39 38 37 37 38 39 40 41 41 39 39 40 42 44 45 48 53 59 64 67 68 69 69 66 64 62 57 57 60 61 61 64 65 64 64 64 66 68 67 65 63 61 59
38 42 47 54 60 65 68 69 69 70 70 66 60 56 52 48 46 45 44 43 42 41 41 40 39 39 40 39 37 38 41 44 44 42 40 40 42 43 42 41 41 41 41 40 39 39 40 40 41 41 42 41 40 39 39 42 43 44 46 51 58 64 67 68 69 68 67 66 59 54 55 58 60 62 64 65 65 64 64 67 68 68 66 64 61
44 49 56 62 67 68 67 67 67 67 64 59 55 52 49 47 44 44 43 43 42 42 41 41 40 40 41 41 42 43 45 45 46 45 42 41 42 42 42 42 42 42 42 42 41 41 41 42 42 42 42 42 42 40 39 40 42 42 41 42 48 57 64 67 68 68 68 69 66 59 54 54 55 59 63 64 65 67 66 64 66 70 69 65 62
50 56 62 68 70 68 66 67 67 64 59 54 51 49 48 46 44 43 42 41 42 41 40 40 40 41 42 43 44 46 48 48 48 47 44 43 42 42 42 42 43 43 43 44 43 42 42 43 44 44 44 43 43 42 40 39 40 42 42 41 43 48 57 64 67 67 66 68 70 66 60 55 53 54 59 62 63 65 67 66 65 67 68 66 63
57 61 68 72 71 69 68 67 65 61 56 52 50 48 46 45 44 43 41 40 40 39 39 40 40 41 44 46 47 49 49 49 49 48 46 44 44 43 43 44 44 44 43 44 44 44 44 44 44 45 45 45 44 43 42 40 40 42 42 43 42 41 46 56 63 66 66 66 68 68 65 60 56 53 54 58 61 61 63 66 66 65 65 65 65
62 65 71 74 72 70 68 66 62 57 53 50 48 47 45 43 42 41 40 38 38 37 38 39 39 40 41 44 47 49 50 51 50 49 47 46 46 46 46 47 46 45 44 44 45 46 46 44 42 43 44 45 45 44 44 42 40 41 42 42 41 37 38 45 55 62 65 66 66 66 66 63 59 56 54 54 58 61 61 62 65 66 65 62 61
62 67 73 75 73 70 66 63 59 54 51 50 50 50 47 45 42 41 39 38 37 37 37 38 39 39 39 40 42 45 48 50 51 50 48 49 50 50 50 50 49 48 46 45 45 45 45 42 39 40 41 43 44 44 43 41 38 39 41 42 41 38 38 40 46 53 59 64 65 65 66 65 60 58 57 55 55 58 61 62 63 65 67 66 63
63 69 74 75 71 67 64 60 56 52 51 52 53 53 51 48 45 42 40 39 38 38 38 38 38 38 39 39 39 41 43 46 49 50 51 52 53 53 53 52 52 51 48 45 44 43 43 41 38 37 38 39 41 42 40 39 37 38 39 41 42 40 39 39 42 46 51 56 61 63 65 66 63 57 56 58 56 55 59 61 62 64 65 67 68
65 70 74 71 67 63 59 56 53 52 52 54 55 55 54 51 47 44 43 43 43 42 41 40 40 38 38 39 40 39 39 41 43 47 51 55 56 56 55 54 54 53 50 46 43 41 42 42 40 37 36 36 38 40 40 38 38 38 38 39 41 40 38 38 39 42 45 48 53 58 61 64 65 60 55 55 57 56 56 58 59 62 64 65 67
67 70 69 65 62 59 55 52 51 50 51 54 55 54 54 53 50 48 49 49 48 47 46 45 43 40 38 37 38 39 39 40 42 45 50 54 56 57 57 56 55 53 50 47 42 40 40 42 42 40 37 36 36 38 40 40 40 40 39 39 40 39 38 37 36 38 41 43 46 51 56 60 63 63 58 53 54 56 56 57 57 58 61 63 65
65 65 62 60 60 56 51 50 49 49 51 53 53 53 54 55 54 55 56 55 54 52 51 49 47 44 39 37 37 38 38 40 42 45 49 52 55 57 57 56 55 52 50 46 41 38 39 42 43 43 39 36 36 38 40 41 41 41 40 40 40 38 37 35 34 35 37 40 42 45 49 55 59 62 62 57 52 52 54 57 58 57 57 59 61
60 60 60 59 56 51 49 48 48 49 51 51 52 53 56 57 58 60 60 60 59 58 56 54 51 47 43 40 40 40 38 38 41 45 49 52 54 56 57 57 56 53 49 46 41 38 39 42 43 44 42 38 36 37 40 40 41 42 41 40 40 38 36 34 33 34 35 37 39 41 44 49 53 58 62 61 56 52 51 53 56 58 58 56 55
60 61 60 56 51 48 47 47 48 49 49 51 53 55 58 59 60 63 63 64 63 60 58 56 52 47 44 43 44 44 41 39 40 44 48 52 54 55 56 57 56 53 50 46 42 39 40 42 44 44 43 40 37 36 39 40 40 42 42 41 41 39 36 34 33 32 34 35 36 39 41 44 47 52 58 63 61 56 51 50 52 54 57 57 55
64 63 58 51 47 47 47 47 48 49 50 52 54 56 59 60 62 64 65 66 64 60 58 56 52 47 45 45 45 44 42 39 39 42 46 50 53 54 55 55 55 53 50 47 43 41 40 41 44 44 43 42 38 36 38 39 40 42 42 42 42 41 38 35 34 33 33 33 34 36 39 40 43 47 52 59 64 62 55 51 49 50 53 56 56
65 59 52 47 46 46 47 47 48 50 52 54 56 58 60 62 64 65 66 66 63 60 58 55 51 47 47 47 45 41 39 38 38 41 44 47 51 53 54 54 53 52 49 47 44 42 41 42 43 44 43 42 38 35 36 38 39 41 42 42 42 42 39 36 34 34 33 32 33 34 36 38 40 43 47 52 60 65 62 55 51 49 50 53 55
59 52 47 46 46 46 46 48 50 52 53 54 56 59 61 63 64 66 67 66 62 60 58 54 50 48 48 47 44 41 38 37 38 39 41 44 47 50 52 53 52 51 48 46 44 42 41 42 43 44 43 40 37 35 35 37 38 39 41 41 42 43 41 37 35 35 33 32 32 33 34 35 37 41 43 46 51 60 65 61 55 51 49 51 53
51 47 46 47 47 48 48 49 50 51 51 53 57 60 62 64 66 68 69 66 63 61 57 53 51 49 47 45 43 41 38 36 36 37 39 41 44 46 48 50 51 50 47 45 43 42 41 42 43 43 41 39 37 35 36 36 37 39 41 42 42 43 41 38 36 35 33 32 31 32 32 33 35 38 40 42 45 51 59 61 59 55 50 49 51
49 47 49 49 49 48 47 46 47 49 51 54 58 61 64 66 69 71 70 66 64 60 56 54 52 48 45 42 42 42 39 36 34 35 36 37 40 42 44 46 46 45 43 43 42 42 41 42 42 41 39 36 35 35 35 36 37 39 41 41 41 42 41 39 37 35 33 31 30 29 29 31 34 36 37 39 41 45 50 54 54 54 53 50 49
47 48 51 50 49 46 43 44 48 52 54 57 60 63 66 69 71 71 70 67 63 59 55 53 49 45 42 40 41 41 39 36 33 33 32 32 35 38 39 41 41 39 38 39 40 39 40 40 40 38 36 34 34 34 35 36 37 39 41 41 41 42 42 41 38 35 32 31 29 27 25 27 31 34 34 35 38 41 44 46 46 47 49 50 49
47 49 50 50 49 46 44 45 50 56 58 61 63 65 67 70 71 70 67 65 61 57 54 49 44 41 38 37 37 36 35 34 30 28 28 28 30 33 35 35 35 35 34 35 36 36 37 38 37 35 33 32 32 33 35 35 37 39 40 40 42 44 45 43 38 35 32 32 30 28 25 25 27 30 31 32 35 39 42 44 43 41 41 44 46
51 50 49 50 48 47 47 48 53 61 64 65 66 66 67 69 69 66 62 59 57 53 49 43 39 36 34 32 31 31 29 28 25 23 23 24 25 27 29 29 29 28 28 29 30 31 33 33 32 31 30 30 30 32 33 34 36 38 39 40 41 44 45 43 38 35 33 32 32 31 29 27 26 28 30 30 32 37 41 42 42 40 38 38 40
56 51 50 52 52 52 54 56 58 63 66 66 67 67 67 66 63 59 57 54 51 47 42 37 34 33 31 29 27 25 23 21 19 18 18 19 20 21 22 22 21 20 20 22 24 25 27 28 28 28 28 29 30 31 31 31 33 37 39 40 41 42 42 41 39 36 33 31 31 31 31 29 27 27 29 30 31 34 39 41 41 41 40 38 38
57 54 55 57 59 60 61 62 63 64 65 66 65 64 62 59 56 54 52 49 44 39 35 33 32 31 28 25 22 20 18 16 15 13 13 13 13 13 14 13 13 13 14 17 19 21 23 24 25 26 27 28 30 31 30 30 31 34 38 41 42 43 42 41 41 39 35 30 28 30 31 30 28 27 28 29 30 32 36 38 39 40 40 40 39
61 59 59 60 62 63 62 62 62 61 61 60 58 56 54 52 50 49 46 41 36 33 31 30 29 26 23 21 19 17 15 13 10 8 6 5 5 4 4 4 5 6 8 11 13 15 17 19 20 22 24 26 28 29 29 29 29 31 36 39 42 44 44 44 44 42 38 32 28 28 28 29 28 27 28 28 28 29 32 34 36 38 38 39 40
62 59 58 58 58 58 57 57 56 54 53 52 50 48 47 47 46 42 37 32 29 28 27 26 25 23 22 22 20 17 14 12 9 7 6 4 4 4 4 3 2 1 2 4 6 8 10 12 14 16 19 21 24 26 28 28 28 29 32 36 39 42 44 45 44 42 39 34 30 28 27 27 28 27 27 28 27 27 28 31 33 35 36 37 38
58 55 54 52 52 51 51 50 49 48 47 46 45 44 44 42 38 33 30 27 26 25 24 24 24 23 23 21 19 18 15 13 12 12 11 11 10 10 9 7 6 5 4 2 1 1 3 4 6 8 12 15 18 21 24 26 27 29 30 33 36 39 42 43 42 39 36 34 31 28 28 28 28 28 27 28 28 27 27 28 31 34 34 35 36
53 52 51 49 48 47 46 46 45 44 44 43 43 41 38 33 29 26 25 24 23 23 23 24 24 23 22 20 19 18 17 16 15 14 14 14 13 13 12 11 11 11 10 9 8 6 5 3 1 2 4 7 10 13 15 18 21 24 28 31 33 36 39 41 40 36 34 34 32 30 29 28 27 28 28 28 29 29 28 28 30 33 35 35 35
53 51 49 47 46 45 45 44 43 43 43 42 38 34 28 25 24 24 23 21 21 22 23 23 23 22 21 20 19 19 18 17 17 17 17 17 17 17 17 16 15 15 14 13 11 9 8 6 5 3 1 2 4 5 5 7 9 12 18 24 30 34 37 39 38 36 33 33 32 31 31 28 27 27 28 28 29 29 30 30 31 33 34 36 36
51 50 48 47 46 45 45 44 43 43 40 35 30 26 23 22 23 22 20 19 20 22 22 22 21 21 21 21 21 20 19 19 19 19 19 19 19 19 18 16 15 14 13 12 10 8 6 4 4 4 3 3 3 4 3 1 1 1 5 11 18 26 31 34 35 34 32 32 32 32 31 29 27 26 27 27 28 28 30 31 32 33 34 35 35
48 47 45 44 43 42 42 42 40 37 32 27 24 23 22 23 22 20 18 18 20 21 22 21 21 21 21 21 21 21 21 21 21 20 20 19 19 18 17 15 13 11 11 9 6 4 2 0 1 0 1 2 2 3 3 0 1 1 3 5 7 13 21 26 28 28 29 30 32 33 32 31 28 27 26 26 27 27 29 30 32 33 33 33 32
48 46 44 43 41 40 39 37 34 29 25 24 24 23 23 22 20 18 17 17 19 21 21 20 21 21 21 21 21 20 20 21 20 20 19 17 16 16 15 13 11 8 7 4 1 1 2 3 3 3 4 5 6 7 7 5 4 4 5 6 5 7 11 16 21 24 27 30 32 33 33 32 31 29 27 26 26 27 29 30 31 31 32 31 30
47 45 44 42 40 37 33 29 27 24 23 24 24 23 23 21 19 16 16 17 19 20 20 20 20 20 19 19 19 18 18 18 18 17 16 14 13 12 10 9 7 5 4 3 3 5 5 6 6 6 6 7 8 9 9 9 9 10 10 10 10 10 11 13 17 21 26 29 32 33 33 32 30 28 27 27 27 28 29 30 30 31 31 30 28
45 43 40 38 35 32 29 27 26 26 25 24 23 23 23 20 17 15 15 16 18 18 18 18 18 18 18 17 17 17 17 18 17 16 15 14 13 12 11 10 8 7 7 7 7 7 8 9 9 10 10 9 10 10 11 11 12 13 14 14 15 16 16 16 17 20 23 26 29 29 29 29 28 27 27 27 27 28 29 30 30 32 32 29 27
42 39 36 33 30 29 29 29 29 28 26 25 24 23 22 19 16 14 14 16 17 17 16 16 16 16 16 16 16 17 17 18 17 15 14 14 13 12 12 12 11 10 9 9 8 8 9 10 12 13 13 13 12 12 13 15 15 16 17 17 18 18 19 19 20 21 23 25 26 27 28 28 28 28 28 28 27 28 29 29 30 31 30 28 27
37 35 32 30 28 28 29 29 29 28 27 26 25 23 21 18 14 13 14 15 15 14 14 14 14 14 14 15 15 16 16 17 17 17 15 14 14 13 12 12 12 12 12 12 12 13 13 15 16 17 17 17 17 16 16 17 18 18 19 20 20 21 21 22 23 23 24 25 26 27 28 28 28 29 28 28 28 28 28 30 30 29 28 28 29
36 32 30 29 29 29 30 30 30 29 27 26 24 22 20 17 14 13 14 14 13 13 13 13 14 14 15 15 14 15 15 16 17 16 15 14 13 12 12 13 13 15 16 18 18 18 18 17 18 19 20 21 22 21 20 19 19 19 20 21 21 22 23 24 25 26 26 26 27 28 28 28 29 29 29 29 28 28 29 30 30 28 27 28 29
34 31 29 28 28 28 29 30 30 28 27 26 24 22 20 17 15 14 13 12 12 11 12 13 14 15 15 15 15 15 16 16 15 13 14 14 13 11 12 14 16 19 22 23 22 20 18 17 17 17 18 20 20 20 21 21 20 20 20 21 22 22 23 25 26 27 27 28 29 29 29 30 30 30 30 29 29 30 30 30 29 28 28 28 29
31 29 28 27 27 28 29 29 29 28 27 26 24 22 20 17 15 14 14 13 12 11 11 12 12 13 14 15 16 17 17 17 14 11 11 12 11 11 12 16 20 24 26 25 22 20 19 18 17 16 16 17 16 15 15 16 18 19 21 21 22 23 24 25 27 28 28 29 30 30 31 31 32 32 31 30 30 31 31 30 29 28 28 29 29
29 27 26 26 26 27 28 28 27 26 26 26 24 23 21 18 16 15 14 13 12 12 11 11 11 12 13 14 16 17 17 17 16 15 13 11 11 12 15 18 23 25 26 25 21 19 18 15 13 13 13 11 9 8 8 9 11 14 16 18 19 20 22 24 26 27 29 31 32 34 34 34 34 34 33 32 32 33 34 33 32 30 29 29 31
30 28 27 26 25 26 27 28 27 26 26 26 24 22 20 18 16 14 13 12 11 11 11 11 11 12 13 13 14 15 16 16 17 18 17 13 13 15 16 19 22 23 26 25 21 18 18 15 11 11 12 11 10 8 7 6 6 6 7 8 9 11 14 16 18 19 21 23 26 29 32 35 36 37 37 36 35 35 35 36 34 32 32 32 32
29 27 26 26 26 27 28 29 28 27 27 26 24 21 19 17 15 13 13 12 12 12 11 11 12 13 13 14 14 15 16 17 16 18 17 14 13 14 16 19 21 22 24 25 23 21 20 19 16 14 14 13 12 10 9 9 9 9 9 9 8 7 8 9 10 10 10 10 11 13 16 20 24 27 31 34 36 36 35 35 34 34 34 35 36
29 27 27 27 27 27 28 29 28 27 27 26 24 21 18 15 14 13 13 13 13 13 13 13 13 13 14 15 16 17 17 16 15 17 18 16 14 15 16 18 20 21 24 27 27 25 22 20 18 16 13 12 12 11 10 10 10 11 11 11 11 10 9 7 7 7 6 6 7 7 8 9 10 13 16 21 27 30 31 32 31 32 33 35 37
30 28 27 27 27 27 28 27 27 26 26 25 23 20 17 15 14 13 13 13 13 13 13 13 13 13 13 14 15 17 17 15 13 16 18 17 16 17 18 18 18 20 23 25 27 26 23 19 17 16 14 12 11 10 9 9 9 10 11 11 11 10 9 8 7 7 7 6 6 7 9 10 10 11 12 14 18 21 24 25 26 26 27 28 30
30 28 27 26 25 26 26 25 25 25 24 23 22 20 17 15 13 13 12 12 12 12 12 12 12 12 12 13 15 16 16 15 15 17 16 14 16 18 18 17 17 20 22 23 23 24 22 19 16 14 14 13 12 11 10 9 10 11 11 12 12 11 10 8 7 7 7 8 8 8 9 10 11 12 12 13 15 16 18 19 20 20 21 22 23
Wind_Direction
255 262 269 275 281 286 289 292 294 296 297 300 301 302 303 304 304 303 303 304 305 305 304 303 303 302 301 299 298 297 296 294 292 290 288 287 286 284 283 281 279 276 274 273 272 271 270 268 265 261 259 258 256 254 251 250 250 250 249 247 248 251 252 250 247 246 245 243 244 245 244 240 233 229 228 230 232 235 235 235 234 233 234 235 234
258 263 270 276 281 285 290 292 295 298 300 302 302 303 305 306 306 306 305 306 306 306 305 304 303 302 301 299 298 296 295 294 292 290 287 285 283 281 279 277 275 273 271 269 267 267 266 263 261 260 258 257 257 256 254 252 250 249 249 248 246 247 248 249 248 246 244 242 241 243 244 242 237 230 226 226 228 230 232 233 232 232 233 234 234
262 268 274 280 285 289 293 297 300 303 304 305 305 306 307 307 307 306 306 306 306 305 304 303 301 299 298 296 295 294 293 292 291 289 286 283 280 278 276 274 273 271 268 265 263 262 261 259 257 256 256 255 255 255 255 253 251 250 249 248 246 245 245 245 246 246 245 243 241 241 242 243 241 234 226 224 225 227 228 230 231 232 232 232 233
268 274 280 284 290 294 297 301 303 304 305 305 305 306 306 306 306 306 306 306 304 303 301 299 297 296 294 291 290 290 291 291 289 287 284 281 279 277 276 273 272 271 268 265 262 261 261 259 256 253 252 251 251 252 252 252 251 249 248 246 244 243 243 243 244 244 244 243 240 239 239 240 242 239 231 227 225 224 225 227 229 231 231 231 232
275 281 285 290 296 301 304 306 306 306 306 306 306 306 306 306 306 306 305 303 302 302 299 296 294 291 289 287 286 286 287 288 287 284 281 279 277 276 275 273 271 270 269 267 265 264 263 263 259 254 250 249 249 248 248 248 247 246 245 244 242 240 240 240 241 241 241 242 240 238 237 238 240 240 236 231 227 225 225 226 227 229 229 230 231
282 288 294 300 305 307 309 309 309 307 307 307 307 307 306 306 305 304 303 303 303 302 299 295 291 288 288 288 289 290 289 288 286 283 280 277 276 275 275 274 272 270 268 266 265 265 265 265 262 257 253 251 251 249 248 246 244 243 241 240 238 237 236 236 236 236 237 240 240 237 236 237 238 239 238 234 230 228 227 226 226 227 228 229 230
287 294 301 306 308 309 309 310 311 310 309 309 309 308 308 306 305 304 304 303 302 300 296 292 289 286 285 287 290 292 292 290 288 286 281 276 275 274 275 275 273 271 269 266 264 263 262 263 263 260 257 256 256 254 252 250 247 244 241 239 236 235 234 233 232 231 231 235 238 235 234 234 235 236 237 237 235 231 229 228 228 228 228 228 230
293 299 304 308 311 314 315 316 317 315 313 312 312 311 310 307 305 303 302 301 299 296 292 288 286 284 282 282 283 283 284 285 287 286 282 276 273 273 274 274 273 271 269 268 265 263 260 261 262 262 260 259 260 260 256 253 252 249 245 241 238 235 233 231 230 228 226 229 233 233 231 231 231 232 234 236 237 234 231 230 229 228 229 229 230
304 310 314 318 321 322 322 321 318 316 314 314 314 312 309 305 301 300 300 298 296 293 289 286 284 281 279 278 277 276 276 279 282 283 281 276 272 271 272 273 272 270 268 266 265 264 263 262 262 262 261 260 260 262 260 256 254 253 251 247 243 238 235 232 229 227 225 226 228 230 230 229 229 230 231 234 236 235 233 231 229 228 228 229 230
317 321 324 325 326 326 324 321 319 317 317 317 315 312 309 304 299 297 297 296 294 292 289 285 282 279 277 276 273 273 273 274 276 279 280 278 272 270 271 272 272 271 268 266 264 264 265 265 264 263 263 263 262 261 262 260 256 254 254 252 248 244 239 235 232 229 227 226 227 230 230 229 228 228 229 232 234 234 234 233 231 229 228 229 230
322 324 325 327 328 326 324 322 321 321 320 317 314 312 310 307 302 297 295 294 292 291 289 286 282 278 276 275 273 273 273 273 274 276 278 278 275 271 271 271 271 270 269 266 264 262 263 266 265 263 263 263 263 262 262 262 258 254 254 252 251 249 244 240 236 233 230 228 228 230 232 231 230 229 228 230 232 234 234 233 233 231 230 229 229
324 325 327 329 328 325 323 321 320 321 319 315 313 313 312 310 306 300 296 293 291 291 291 289 286 281 277 275 274 273 273 273 273 274 274 275 276 274 272 270 269 269 268 267 266 263 263 265 264 262 262 261 262 262 262 262 258 253 253 252 251 251 250 246 241 238 235 232 230 230 232 233 233 231 229 229 231 233 234 235 234 234 232 230 228
325 326 327 326 325 323 321 321 321 320 318 315 315 316 315 314 311 305 299 294 291 290 290 290 290 287 283 279 276 274 272 271 272 273 272 271 273 273 272 270 269 269 269 268 267 265 266 266 262 261 260 259 260 261 262 262 257 250 250 250 247 246 249 250 246 242 240 237 234 233 232 233 234 233 231 230 230 231 232 234 234 235 234 233 230
325 325 324 323 322 322 321 322 322 320 318 318 319 320 318 317 316 312 306 301 296 292 290 290 290 288 286 284 282 279 275 272 270 270 269 268 269 271 271 271 271 270 269 268 267 267 268 266 262 261 261 259 259 260 261 260 253 247 248 248 245 242 245 249 249 246 244 242 239 237 234 233 233 233 232 231 231 231 231 232 233 234 235 235 233
323 322 322 321 322 322 322 322 322 321 321 322 323 322 320 318 318 316 314 312 308 302 297 293 291 289 286 286 287 285 281 276 270 267 265 265 267 269 269 270 271 271 270 269 267 267 268 267 264 261 261 260 259 259 259 256 248 245 246 246 244 244 245 248 249 248 246 245 243 241 239 235 232 232 232 232 232 232 231 231 232 234 235 236 235
321 320 320 322 323 323 323 323 322 323 323 324 324 323 321 320 319 319 320 320 319 315 310 303 297 293 288 287 289 289 286 279 271 264 260 260 263 265 267 267 269 271 272 270 267 266 267 268 265 262 261 261 260 258 257 253 248 245 244 243 243 244 246 248 249 248 247 246 245 243 242 239 234 231 231 230 231 232 232 231 231 232 234 236 236
321 321 322 324 324 324 323 323 324 325 324 324 324 323 322 322 322 322 323 323 322 321 317 312 306 298 290 287 289 291 288 280 272 265 260 259 259 261 264 265 267 270 272 272 268 265 264 266 266 264 263 261 259 258 256 252 247 245 243 241 240 242 244 247 248 248 248 247 246 245 243 241 238 233 231 230 229 230 232 231 231 231 232 234 236
323 323 324 324 324 323 322 322 324 324 323 323 322 322 322 322 322 323 323 322 322 321 319 317 312 304 294 287 287 289 288 280 273 267 263 261 260 261 262 264 267 270 272 273 272 266 263 263 265 266 265 264 259 256 256 253 247 243 242 240 238 239 242 244 245 246 248 248 248 247 244 242 240 236 233 232 231 229 230 231 231 231 231 232 234
325 324 324 323 322 322 321 322 323 322 322 322 321 321 320 320 320 321 321 322 321 321 319 317 315 308 300 293 290 291 289 281 272 267 264 263 263 263 263 265 267 269 270 272 273 269 263 261 263 265 266 266 261 254 253 253 248 242 240 239 237 237 240 242 243 243 245 247 248 249 247 243 241 238 234 233 233 232 230 230 231 231 231 230 231
324 324 323 322 321 321 322 321 321 321 321 321 320 319 319 319 319 319 319 321 321 320 318 316 314 310 303 298 296 295 291 283 273 267 264 263 263 264 264 265 267 267 268 270 270 267 263 260 260 262 265 267 262 254 251 252 248 241 238 238 236 236 238 241 242 243 244 246 247 248 249 246 243 240 236 233 234 236 234 231 231 231 232 231 230
323 322 322 322 322 322 321 319 319 319 320 319 319 318 318 317 317 318 319 321 321 319 317 316 314 310 305 301 299 296 292 285 276 267 263 261 262 263 264 265 266 266 266 266 266 264 262 259 258 259 263 265 262 254 251 251 247 239 236 236 236 235 237 240 242 243 245 247 249 249 249 248 245 242 238 234 233 236 238 235 233 232 232 232 231
322 323 324 324 322 321 320 319 318 319 318 317 317 316 316 316 317 319 321 322 321 319 318 317 315 312 308 304 301 297 291 285 277 270 266 263 262 262 263 263 265 265 264 263 262 262 260 259 257 258 261 263 261 255 251 250 246 238 234 234 235 235 236 239 242 243 245 248 251 251 249 248 247 244 241 236 232 233 237 239 237 235 234 232 232
324 325 326 325 324 323 320 319 319 317 316 316 315 315 315 316 318 320 322 323 321 320 319 317 315 313 310 306 302 298 291 284 278 272 268 265 263 262 262 263 264 264 264 263 261 259 257 256 256 258 261 261 259 254 250 247 243 237 234 233 234 234 235 239 241 242 245 249 252 253 250 246 246 245 243 239 234 231 234 239 240 238 237 234 232
327 327 328 327 326 324 321 319 317 316 315 315 314 314 315 316 318 320 322 323 321 320 320 318 316 314 311 306 302 297 291 285 278 272 268 265 263 262 261 261 261 261 262 261 258 255 252 252 254 256 259 259 256 252 249 246 242 236 233 232 231 233 234 237 240 241 243 248 251 253 250 246 244 244 243 241 238 232 232 236 239 240 239 238 234
328 327 328 327 325 324 322 318 315 315 315 314 313 313 314 316 318 320 322 322 321 321 320 319 317 315 311 306 301 298 293 288 281 274 270 266 264 263 261 260 259 259 259 257 254 250 248 249 252 255 257 255 252 250 248 246 242 237 235 232 229 230 233 236 238 240 242 245 248 250 249 245 243 243 244 243 241 235 232 233 237 239 240 240 238
327 326 326 325 323 322 319 315 313 314 315 314 313 313 314 316 318 320 321 321 321 321 320 319 317 314 309 304 300 298 296 292 286 279 274 268 264 263 261 260 259 258 256 253 249 246 244 247 250 252 252 250 247 246 246 245 242 239 237 234 229 228 230 233 236 239 241 241 243 246 246 245 243 243 244 245 244 238 232 230 232 236 238 239 240
325 324 324 322 321 319 314 312 311 312 313 313 313 313 314 316 318 319 319 320 320 321 321 320 316 312 309 305 302 300 298 296 291 285 279 271 265 263 261 259 257 255 253 249 246 242 242 245 247 248 247 245 243 244 245 246 243 240 238 236 232 230 231 233 235 239 239 239 241 241 240 243 245 244 243 245 246 241 234 229 228 229 231 233 235
323 322 320 319 319 316 310 309 310 311 312 313 314 314 315 317 318 319 319 320 321 322 321 320 317 315 313 311 308 305 302 300 295 288 281 274 267 263 260 258 257 258 258 254 248 243 242 244 246 246 245 243 242 244 247 248 246 242 239 236 234 233 233 233 234 237 238 239 241 239 237 239 241 242 243 244 246 243 237 232 229 226 225 225 227
323 320 317 316 316 314 310 309 311 312 313 315 315 316 317 318 319 319 321 322 323 323 322 322 324 325 325 322 319 315 310 304 297 289 280 274 267 261 258 257 257 259 259 255 250 246 245 246 246 246 243 242 243 245 248 249 247 244 240 237 236 235 235 234 232 233 237 241 242 238 236 238 238 240 243 243 245 245 241 237 234 231 229 226 224
322 317 316 315 314 313 311 311 312 313 314 315 316 317 318 320 321 322 323 325 326 326 328 331 335 335 335 333 332 329 324 316 307 296 284 275 268 261 257 255 256 256 253 251 251 251 251 249 247 243 241 241 243 246 250 251 249 245 241 238 236 235 235 235 233 233 236 240 241 236 234 237 237 239 241 241 243 245 243 241 238 236 235 233 230
322 319 317 315 312 312 312 313 314 315 316 317 318 320 321 322 324 325 327 329 330 333 339 342 343 345 348 351 352 351 347 341 334 325 313 297 279 266 258 253 255 256 254 254 253 254 254 251 247 243 242 243 246 249 254 254 251 247 242 239 237 236 235 235 235 236 236 237 238 235 235 236 236 238 239 239 240 242 243 243 242 240 238 237 236
325 324 321 319 318 318 318 318 319 319 320 322 323 324 325 326 327 329 332 334 337 344 350 352 355 1 7 8 8 7 7 9 13 22 34 45 63 76 80 87 108 183 233 248 252 255 256 255 252 250 249 251 253 256 258 257 253 248 243 239 238 237 236 236 236 237 235 234 234 236 238 238 236 236 238 237 237 238 240 242 244 243 240 238 238
331 330 328 327 327 326 325 325 325 325 326 328 329 329 329 330 331 333 338 344 350 356 0 4 10 15 17 19 20 21 24 32 40 49 58 65 71 77 81 86 89 93 98 103 127 244 260 257 256 256 257 258 258 259 259 257 253 247 243 239 237 235 236 236 237 235 232 231 232 235 239 241 238 237 236 235 234 236 239 242 244 244 242 240 238
336 335 334 334 333 332 331 331 330 330 331 332 332 333 333 334 336 341 348 356 2 7 12 16 20 22 23 27 31 32 35 41 47 56 63 68 73 78 82 87 91 93 94 93 91 89 88 96 135 233 255 260 262 261 259 257 254 248 244 241 237 234 233 234 235 233 230 230 232 235 239 241 239 238 238 237 236 236 239 241 243 242 241 240 239
339 338 337 336 336 335 333 333 333 333 334 335 336 338 339 342 346 352 360 7 11 16 19 22 24 27 30 35 39 40 43 47 53 60 66 71 77 81 84 87 90 91 92 91 88 87 88 90 87 72 34 311 294 284 266 256 255 252 247 244 241 237 233 230 230 230 229 231 233 236 239 241 239 238 238 239 239 238 238 238 239 240 239 239 237
338 337 337 337 337 335 334 334 334 335 338 341 342 345 350 353 356 2 11 16 18 21 23 25 30 36 40 44 45 45 48 52 57 61 67 74 78 79 80 82 86 91 91 85 78 74 75 78 74 63 45 15 352 343 350 56 138 274 267 255 247 242 236 231 228 227 228 231 233 236 238 239 239 237 235 236 238 238 237 236 235 236 237 237 236
338 338 339 338 337 337 335 336 338 341 346 350 352 356 359 2 6 12 19 23 24 27 29 33 40 46 48 49 49 50 52 54 58 60 65 71 73 72 71 71 76 87 91 83 74 74 83 273 282 171 189 227 265 293 301 295 107 27 318 286 259 245 236 230 227 227 228 230 231 234 235 237 238 235 232 234 239 240 239 236 233 234 236 237 237
341 340 340 339 339 339 339 341 346 352 357 360 1 2 5 9 14 20 28 30 30 33 37 44 50 52 52 52 52 53 55 56 60 63 66 70 72 71 71 69 68 76 86 88 84 251 244 265 277 265 245 240 235 239 243 233 221 246 263 257 248 240 230 224 223 224 226 228 229 230 233 235 236 234 231 234 239 241 241 238 234 234 236 237 236
343 342 342 342 342 344 347 352 358 3 6 6 5 6 11 16 21 27 33 35 36 41 48 53 56 54 53 53 53 54 55 55 57 60 64 68 69 66 66 67 64 57 43 19 340 320 313 309 307 299 284 267 254 249 245 235 229 232 236 234 229 228 225 222 221 222 223 226 228 231 233 235 235 232 233 236 238 239 241 238 235 234 235 234 234
345 344 345 347 348 352 360 4 7 9 10 10 10 12 16 21 26 32 37 38 41 47 53 57 56 53 52 51 51 51 51 51 51 52 54 54 50 45 40 36 33 27 17 7 353 338 326 318 310 302 293 283 271 264 258 249 241 237 236 235 231 229 229 229 228 227 225 226 228 229 230 231 232 233 235 237 237 238 240 238 235 235 235 234 234
347 348 351 356 358 3 7 8 8 10 11 12 14 16 20 26 31 37 40 41 44 50 56 58 55 51 48 45 44 44 42 41 40 40 43 45 40 34 30 28 25 20 13 3 350 336 321 309 302 297 294 289 280 269 261 258 255 250 245 242 237 234 233 232 233 232 230 228 228 228 228 229 233 236 237 238 238 238 239 239 237 236 237 237 238
352 355 359 4 8 10 11 10 9 10 13 16 17 19 23 29 36 42 43 44 45 49 55 55 49 45 41 36 36 36 35 32 28 25 26 29 30 30 29 27 22 12 2 352 339 327 315 306 301 297 294 291 285 277 267 260 257 255 252 249 246 243 241 240 239 237 235 234 233 234 235 236 237 239 239 240 240 240 241 241 238 236 236 238 239
358 2 6 10 12 12 12 12 10 10 14 18 19 21 26 32 39 44 45 45 45 48 51 49 43 38 33 31 31 31 30 27 22 18 18 18 21 28 28 19 10 3 355 346 337 329 320 312 305 298 292 288 284 280 275 268 262 257 254 251 250 248 246 247 246 244 242 241 240 239 238 239 239 240 240 241 242 242 243 243 242 239 237 238 240
3 7 11 14 15 14 13 12 11 12 15 19 22 25 28 32 38 42 43 42 40 41 43 41 35 29 25 26 29 27 23 20 19 22 25 22 19 20 17 9 4 360 354 347 341 337 333 326 318 309 300 294 289 283 277 273 270 266 262 258 255 253 250 249 249 247 246 245 244 242 240 238 237 237 236 237 239 241 242 243 244 243 241 240 242
8 11 13 15 16 16 15 14 13 13 15 19 23 27 30 35 39 40 40 38 35 34 33 29 26 23 21 22 24 23 19 16 17 23 31 34 30 20 11 7 5 1 355 350 349 348 345 339 330 322 315 309 303 292 281 272 268 267 267 265 263 260 257 255 253 252 249 247 246 245 242 240 238 236 234 233 234 236 238 239 240 242 243 244 244
11 15 16 18 18 17 18 16 14 15 18 21 24 27 31 35 37 37 38 38 37 36 32 28 26 24 24 25 25 22 16 12 15 19 24 32 35 26 17 13 8 1 357 357 358 356 352 347 339 335 336 336 332 319 304 287 275 270 271 271 270 267 263 261 259 258 255 251 248 246 244 242 241 239 238 236 236 236 236 236 237 238 239 241 242
11 15 17 18 18 19 21 19 17 18 20 23 26 28 31 33 33 33 34 34 34 33 29 29 28 26 27 27 24 18 9 6 12 17 16 18 20 19 19 16 10 3 2 3 4 2 2 3 4 4 7 12 15 14 10 1 343 322 309 298 290 280 270 264 259 257 255 253 249 246 245 243 243 242 241 240 239 237 236 236 236 235 234 234 236
11 13 15 17 18 20 21 20 19 20 21 24 26 29 32 33 31 30 30 29 30 29 27 29 29 27 27 24 19 11 4 3 8 10 9 11 11 7 11 14 8 4 6 8 10 10 10 12 16 19 20 20 22 25 30 32 29 22 16 8 358 337 306 278 261 250 244 241 239 237 237 238 240 241 240 239 238 236 235 236 236 235 233 234 236
11 12 14 15 17 19 19 18 18 20 22 23 24 28 32 34 31 31 31 31 32 32 32 32 29 26 24 20 16 12 8 6 6 360 357 2 8 6 9 11 6 3 7 10 11 11 10 10 15 20 19 19 21 23 25 28 28 24 18 11 3 355 343 323 297 275 251 222 202 192 192 203 214 220 224 228 231 232 233 234 236 235 234 235 237
12 12 12 13 14 16 16 16 17 20 22 22 23 25 28 31 31 30 30 31 33 32 31 28 25 23 22 19 17 15 12 10 7 358 352 355 3 8 10 8 4 4 8 9 9 8 6 6 12 17 14 11 12 11 11 14 14 12 10 4 357 353 349 343 329 312 292 265 232 208 196 192 192 193 195 202 212 220 224 227 232 233 233 234 236
13 13 12 12 13 14 13 13 15 19 22 22 22 22 23 25 25 25 25 28 30 29 27 24 22 21 19 15 13 11 10 7 5 2 359 358 1 4 6 6 6 6 7 6 6 5 3 2 6 12 13 9 5 1 1 6 8 7 4 1 1 2 359 352 342 326 306 286 269 251 229 210 198 194 194 196 201 208 214 218 223 226 229 231 234